THA152 VTBS-VTSM

Flight info

Callsign THA152
Flight time N/A
Altitude 29000
Route KASNI1E KASNI M757 MABKO W33 UPNEP
Aircraft A320/M-SDE3FGHIRWY/LB1

Departure

Time N/A
Airport Suvarnabhumi Airport (VTBS)

Arrival

Time 2026-04-24 19:36
Airport Samui International Airport (VTSM)
Time Latitude Longitude Altitude Speed Heading
2026-04-24 18:54 12.44275 100.66171 25298 ft 433 kts 181°
2026-04-24 18:55 12.38217 100.66008 25914 ft 437 kts 181°
2026-04-24 18:55 12.35171 100.65928 26223 ft 439 kts 181°
2026-04-24 18:55 12.32118 100.65851 26553 ft 440 kts 181°
2026-04-24 18:56 12.29054 100.65776 26837 ft 442 kts 181°
2026-04-24 18:56 12.25965 100.65696 27086 ft 445 kts 181°
2026-04-24 18:56 12.22873 100.65612 27383 ft 447 kts 180°
2026-04-24 18:56 12.19749 100.65524 27628 ft 449 kts 180°
2026-04-24 18:57 12.16622 100.65438 27955 ft 450 kts 180°
2026-04-24 18:57 12.13487 100.65356 28287 ft 451 kts 180°
2026-04-24 18:57 12.10346 100.65278 28581 ft 453 kts 180°
2026-04-24 18:57 12.07219 100.65201 28831 ft 442 kts 180°
2026-04-24 18:58 12.04193 100.65124 28868 ft 431 kts 180°
2026-04-24 18:58 11.98236 100.64974 28865 ft 427 kts 180°
2026-04-24 18:59 11.92417 100.64820 28865 ft 408 kts 180°
2026-04-24 18:59 11.86838 100.64679 28863 ft 390 kts 180°
2026-04-24 18:59 11.84173 100.64615 28864 ft 376 kts 180°
2026-04-24 19:00 11.81621 100.64552 28863 ft 368 kts 180°
2026-04-24 19:00 11.76538 100.64421 28865 ft 363 kts 180°
2026-04-24 19:01 11.71519 100.64294 28863 ft 359 kts 180°
2026-04-24 19:01 11.66530 100.64167 28862 ft 358 kts 180°
2026-04-24 19:02 11.62382 100.64061 28863 ft 359 kts 180°
2026-04-24 19:02 11.56549 100.63925 28868 ft 359 kts 180°
2026-04-24 19:03 11.51560 100.63799 28873 ft 359 kts 180°
2026-04-24 19:03 11.46598 100.63670 28874 ft 359 kts 179°
2026-04-24 19:04 11.41606 100.63549 28876 ft 359 kts 179°
2026-04-24 19:04 11.36611 100.63424 28875 ft 359 kts 180°
2026-04-24 19:05 11.31666 100.63732 28879 ft 355 kts 160°
2026-04-24 19:05 11.27660 100.64752 28873 ft 356 kts 173°
2026-04-24 19:06 11.22693 100.64778 28868 ft 358 kts 180°
2026-04-24 19:06 11.17746 100.64654 28870 ft 358 kts 180°
2026-04-24 19:07 11.12764 100.64515 28877 ft 358 kts 180°
2026-04-24 19:07 11.07773 100.64392 28876 ft 359 kts 180°
2026-04-24 19:08 11.02783 100.64267 28873 ft 359 kts 180°
2026-04-24 19:08 10.97786 100.64137 28875 ft 359 kts 180°
2026-04-24 19:09 10.92792 100.63938 28871 ft 360 kts 190°
2026-04-24 19:09 10.88014 100.62444 28868 ft 359 kts 190°
2026-04-24 19:10 10.83059 100.62019 28865 ft 358 kts 180°
2026-04-24 19:10 10.78030 100.61900 28865 ft 371 kts 179°
2026-04-24 19:10 10.75410 100.61856 28866 ft 382 kts 179°
2026-04-24 19:11 10.72747 100.61804 28866 ft 393 kts 180°
2026-04-24 19:11 10.69973 100.61743 28865 ft 404 kts 180°
2026-04-24 19:11 10.67118 100.61676 28865 ft 415 kts 180°
2026-04-24 19:11 10.64205 100.61606 28607 ft 424 kts 180°
2026-04-24 19:12 10.61240 100.61532 27920 ft 426 kts 180°
2026-04-24 19:12 10.58285 100.61455 27428 ft 423 kts 180°
2026-04-24 19:12 10.55359 100.61377 27008 ft 418 kts 180°
2026-04-24 19:12 10.52465 100.61299 26580 ft 415 kts 180°
2026-04-24 19:13 10.50517 100.61248 26294 ft 412 kts 180°
2026-04-24 19:13 10.46738 100.61154 25719 ft 409 kts 180°
2026-04-24 19:13 10.43899 100.61085 25268 ft 407 kts 180°
2026-04-24 19:13 10.41079 100.61019 24825 ft 405 kts 180°
2026-04-24 19:14 10.38303 100.60954 24371 ft 392 kts 181°
2026-04-24 19:14 10.35618 100.60889 23930 ft 380 kts 181°
2026-04-24 19:14 10.33021 100.60825 23497 ft 368 kts 181°
2026-04-24 19:14 10.30501 100.60763 23029 ft 356 kts 181°
2026-04-24 19:15 10.28063 100.60701 22606 ft 344 kts 181°
2026-04-24 19:15 10.25706 100.60641 22197 ft 333 kts 181°
2026-04-24 19:15 10.23413 100.60585 21821 ft 329 kts 181°
2026-04-24 19:15 10.21087 100.60529 21414 ft 337 kts 181°
2026-04-24 19:16 10.16405 100.60411 20620 ft 336 kts 181°
2026-04-24 19:16 10.14066 100.60352 20218 ft 336 kts 180°
2026-04-24 19:16 10.11729 100.60295 19853 ft 335 kts 180°
2026-04-24 19:17 10.09398 100.60239 19511 ft 333 kts 180°
2026-04-24 19:17 10.07104 100.60182 19311 ft 327 kts 180°
2026-04-24 19:17 10.04872 100.60128 19050 ft 323 kts 180°
2026-04-24 19:17 10.02606 100.60076 18748 ft 321 kts 180°
2026-04-24 19:18 10.00390 100.60027 18376 ft 323 kts 180°
2026-04-24 19:18 9.98141 100.59976 17980 ft 324 kts 180°
2026-04-24 19:18 9.95907 100.59922 17488 ft 319 kts 180°
2026-04-24 19:18 9.93700 100.59867 17048 ft 317 kts 180°
2026-04-24 19:19 9.91417 100.59813 16608 ft 335 kts 180°
2026-04-24 19:19 9.89069 100.59755 16169 ft 337 kts 180°
2026-04-24 19:19 9.86733 100.59695 15740 ft 336 kts 180°
2026-04-24 19:19 9.84394 100.59636 15315 ft 336 kts 180°
2026-04-24 19:20 9.82072 100.59428 14894 ft 337 kts 191°
2026-04-24 19:20 9.79873 100.58615 14469 ft 339 kts 207°
2026-04-24 19:20 9.77970 100.57196 14046 ft 342 kts 223°
2026-04-24 19:20 9.76306 100.55476 13617 ft 342 kts 224°
2026-04-24 19:21 9.74640 100.53751 13138 ft 342 kts 224°
2026-04-24 19:21 9.72971 100.52032 12678 ft 342 kts 224°
2026-04-24 19:21 9.71317 100.50298 12193 ft 342 kts 228°
2026-04-24 19:21 9.70015 100.48283 11730 ft 344 kts 243°
2026-04-24 19:22 9.69430 100.46793 11437 ft 344 kts 249°
2026-04-24 19:22 9.68341 100.43750 10837 ft 343 kts 249°
2026-04-24 19:22 9.67521 100.41478 10394 ft 343 kts 249°
2026-04-24 19:22 9.66701 100.39218 10040 ft 340 kts 249°
2026-04-24 19:23 9.65901 100.37016 9910 ft 323 kts 249°
2026-04-24 19:23 9.65149 100.34941 9767 ft 310 kts 248°
2026-04-24 19:23 9.64413 100.32913 9345 ft 304 kts 248°
2026-04-24 19:23 9.63695 100.30935 8926 ft 302 kts 249°
2026-04-24 19:24 9.62974 100.28949 8487 ft 300 kts 249°
2026-04-24 19:24 9.62247 100.26943 8050 ft 299 kts 249°
2026-04-24 19:24 9.61542 100.25000 7655 ft 297 kts 249°
2026-04-24 19:24 9.60833 100.23045 7245 ft 295 kts 249°
2026-04-24 19:25 9.60131 100.21110 6847 ft 292 kts 250°
2026-04-24 19:25 9.59430 100.19174 6452 ft 291 kts 250°
2026-04-24 19:25 9.58735 100.17263 6048 ft 288 kts 250°
2026-04-24 19:25 9.58042 100.15362 5631 ft 287 kts 250°
2026-04-24 19:26 9.57388 100.13464 5255 ft 284 kts 257°
2026-04-24 19:26 9.57330 100.11499 4976 ft 278 kts 283°
2026-04-24 19:26 9.58083 100.09725 4691 ft 274 kts 308°
2026-04-24 19:26 9.59471 100.08446 4408 ft 270 kts 332°
2026-04-24 19:27 9.61229 100.07851 4090 ft 266 kts 356°
2026-04-24 19:27 9.63049 100.08018 3944 ft 264 kts 14°
2026-04-24 19:27 9.64854 100.08430 3949 ft 268 kts 13°
2026-04-24 19:27 9.66678 100.08836 3950 ft 269 kts 13°
2026-04-24 19:28 9.68501 100.09236 3945 ft 268 kts 13°
2026-04-24 19:28 9.70302 100.09630 3943 ft 259 kts 13°
2026-04-24 19:28 9.72012 100.10001 3942 ft 244 kts 13°
2026-04-24 19:28 9.73617 100.10352 3941 ft 229 kts 13°
2026-04-24 19:29 9.76670 100.11029 3950 ft 224 kts 14°
2026-04-24 19:29 9.78201 100.11305 3949 ft 225 kts
2026-04-24 19:29 9.79736 100.11028 3951 ft 227 kts 338°
2026-04-24 19:30 9.81040 100.10122 3947 ft 230 kts 313°
2026-04-24 19:30 9.81868 100.08742 3950 ft 232 kts 288°
2026-04-24 19:30 9.82057 100.07126 3949 ft 233 kts 263°
2026-04-24 19:30 9.81560 100.05574 3948 ft 235 kts 237°
2026-04-24 19:31 9.80467 100.04366 3944 ft 233 kts 213°
2026-04-24 19:31 9.78986 100.03736 3945 ft 232 kts 187°
2026-04-24 19:31 9.77391 100.03753 3948 ft 230 kts 170°
2026-04-24 19:31 9.75795 100.03952 3899 ft 232 kts 171°
2026-04-24 19:32 9.74168 100.04136 3557 ft 237 kts 171°
2026-04-24 19:32 9.72525 100.04312 3248 ft 237 kts 172°
2026-04-24 19:32 9.70883 100.04483 2936 ft 238 kts 172°
2026-04-24 19:32 9.69242 100.04654 2635 ft 236 kts 172°
2026-04-24 19:33 9.67614 100.04824 2337 ft 234 kts 173°
2026-04-24 19:33 9.66025 100.04991 2035 ft 231 kts 172°
2026-04-24 19:33 9.64437 100.05160 1820 ft 223 kts 172°
2026-04-24 19:33 9.62964 100.05313 1497 ft 204 kts 172°
2026-04-24 19:34 9.61598 100.05527 1126 ft 191 kts 166°
2026-04-24 19:34 9.60370 100.05777 880 ft 167 kts 173°
2026-04-24 19:34 9.59286 100.05830 801 ft 149 kts 175°
2026-04-24 19:34 9.58283 100.05916 606 ft 143 kts 173°
2026-04-24 19:35 9.57294 100.06001 376 ft 142 kts 169°
2026-04-24 19:35 9.56327 100.06105 214 ft 140 kts 172°
2026-04-24 19:35 9.55372 100.06197 26 ft 132 kts 171°
2026-04-24 19:35 9.54624 100.06272 22 ft 70 kts 174°
2026-04-24 19:36 9.54312 100.06302 22 ft 35 kts 174°
2026-04-24 19:36 9.54099 100.06321 23 ft 30 kts 174°
2026-04-24 19:36 9.53956 100.06330 26 ft 18 kts 187°
2026-04-24 19:36 9.53855 100.06326 27 ft 9 kts 156°
2026-04-24 19:37 9.53878 100.06348 27 ft 9 kts 353°
2026-04-24 19:37 9.53959 100.06337 26 ft 14 kts 352°
2026-04-24 19:37 9.54073 100.06323 25 ft 19 kts 355°
2026-04-24 19:37 9.54217 100.06311 23 ft 23 kts 354°
2026-04-24 19:38 9.54391 100.06293 22 ft 27 kts 354°
2026-04-24 19:38 9.54590 100.06274 22 ft 30 kts 354°
2026-04-24 19:38 9.54762 100.06257 20 ft 22 kts 354°
2026-04-24 19:38 9.54920 100.06243 20 ft 23 kts 355°
2026-04-24 19:39 9.55003 100.06258 19 ft 8 kts 64°
2026-04-24 19:39 9.55027 100.06309 19 ft 6 kts 24°
2026-04-24 19:39 9.55068 100.06313 16 ft 6 kts 358°
2026-04-24 19:39 9.55103 100.06309 16 ft 3 kts 354°
2026-04-24 19:40 9.55116 100.06322 16 ft 3 kts 72°
2026-04-24 19:40 9.55120 100.06336 15 ft 2 kts 78°
2026-04-24 19:40 9.55121 100.06343 15 ft 0 kts 81°